Regional Weather Roundup
Issued by NWS Sioux Falls, SD

Home | Current Version | Previous Version | Graphics & Text | Print | Product List | Glossary Off
Versions: 1 2 3 4 5 6 7 8 9 10 11 12 13 14 15 16 17 18 19 20 21 22 23 24 25 26 27 28 29 30 31 32 33 34 35 36 37 38 39 40 41 42 43 44 45 46 47 48 49 50

000
ASUS43 KFSD 202310
RWRFSD

WEATHER ROUNDUP FOR SE SOUTH DAKOTA/SW MINNESOTA/NW IOWA
NATIONAL WEATHER SERVICE SIOUX FALLS SD
600 PM CDT WED AUG 20 2014

NOTE: "FAIR" INDICATES FEW OR NO CLOUDS BELOW 12,000 FEET WITH NO
SIGNIFICANT WEATHER AND OR OBSTRUCTIONS TO VISIBILITY.


SDZ038>040-050-052>070-210000-
SOUTHEAST SOUTH DAKOTA

CITY           SKY/WX    TMP DP  RH WIND       PRES   REMARKS
CHAMBERLAIN    SUNNY     82  72  69 SE9       29.69F
HURON          CLOUDY    81  66  60 S9        29.71R
MADISON        FAIR      75  72  88 SE7       29.79S
MITCHELL       CLOUDY    79  70  74 S12       29.73R
SIOUX FALLS    LGT RAIN  74  70  87 SE7       29.78R
WINNER         FAIR      90  66  45 SE10      29.69S
YANKTON        CLOUDY    79  73  83 SE13      29.74S
$$

MNZ071-072-080-081-089-090-097-098-210000-
SOUTHWEST MINNESOTA

CITY           SKY/WX    TMP DP  RH WIND       PRES   REMARKS
FAIRMONT       PTSUNNY   79  64  61 S10       29.84S
JACKSON        CLOUDY    77  68  73 SE8       29.85S
LUVERNE        LGT RAIN  73  70  88 SE6       29.79F
MARSHALL       CLOUDY    81  66  61 S10       29.79S
MONTEVIDEO     CLOUDY    79  70  73 S8        29.80S
PIPESTONE      CLOUDY    79  70  73 S7        29.80F
REDWOOD FALLS  PTSUNNY   83  68  60 SE10      29.80S
TRACY          CLOUDY    81  69  67 SE9       29.82S
WINDOM         PTSUNNY   79  68  69 SE8       29.83S
WORTHINGTON    CLOUDY    75  18  11 S8        29.85R
$$

IAZ001>003-012>014-020>022-031-032-NEZ013-014-SDZ071-210000-
NORTHWEST IOWA

CITY           SKY/WX    TMP DP  RH WIND       PRES   REMARKS
CHEROKEE       CLOUDY    77  73  90 S7        29.80R
DENISON        PTSUNNY   82  75  78 SE13G18   29.79F
ESTHERVILLE    CLOUDY    74  68  81 SE8       29.83F
LE MARS        PTSUNNY   77  73  88 SE10G18   29.76F
ORANGE CITY    CLOUDY    77  72  83 E3        29.80S
SHELDON        CLOUDY    72  70  94 CALM      29.82R
SIOUX CITY     PTSUNNY   81  74  79 SE13      29.75F
SPENCER        LGT RAIN  74  68  81 SE6       29.83R
STORM LAKE     CLOUDY    77  75  94 S13       29.81F
$$

ABBREVIATIONS USED IN REMARKS
   TC - TEMPERATURE IN CELSIUS
  WCI - WIND CHILL INDEX
   HX - HEAT INDEX
  VSB - VISIBILITY




USA.gov is the U.S. government's official web portal to all federal, state and local government web resources and services.